Weather History for Omaha Millard, NE

Change the Weather History Date:

Sunday, April 21, 2013

  Actual Average (KOMA) Record (KOMA)
Temperature  
Mean Temperature 56 °F 54 °F  
Max Temperature 68 °F 66 °F 90 °F (1989)
Min Temperature 45 °F 42 °F 26 °F (1966)
Degree Days  
Heating Degree Days 8 12  
Month to date heating degree days 322  
Since 1 July heating degree days 5911  
Cooling Degree Days 0 1  
Month to date cooling degree days 5  
Year to date cooling degree days 6  
Growing Degree Days 6 (Base 50)    
Moisture  
Dew Point 40 °F    
Average Humidity 57    
Maximum Humidity 97    
Minimum Humidity 33    
Precipitation  
Precipitation 0.39 in 0.11 in 1.60 in (1984)
Month to date precipitation 1.90  
Year to date precipitation 5.46  
Snow  
Snow 0.00 in 0.10 in - ()
Month to date snowfall 0.9  
Since 1 July snowfall 26.3  
Snow Depth -    
Sea Level Pressure  
Sea Level Pressure 30.07 in    
Wind  
Wind Speed 10 mph (SSE)    
Max Wind Speed 21 mph    
Max Gust Speed 36 mph    
Visibility 10 miles    
Events Rain    
T = Trace of Precipitation, MM = Missing Value Source: NWS Daily Summary

Daily Weather History Graph

Daily Weather History Graph

Search for Another Location

Airport:

Trip Planner

Search our weather history database for the weather conditions in past years. The results will help you decide how hot, cold, wet, or windy it might be!

Date:

Astronomy

Apr. 21, 2013 Rise Set
Actual Time 6:35 AM CDT 8:11 PM CDT
Civil Twilight 6:06 AM CDT 8:40 PM CDT
Nautical Twilight 5:31 AM CDT 9:15 PM CDT
Astronomical Twilight 4:54 AM CDT 9:53 PM CDT
Moon 3:55 PM CDT (4/21) 4:00 AM CDT (4/21)
Length of Visible Light 14h 33m
Length of Day
13h 35m
Waxing Gibbous, 80% of the Moon is Illuminated
Apr 21
Waxing Gibbous
Apr 25
Full
May 2
Last Quarter
May 9
New
May 17
First Quarter

Hourly Weather History & Observations

Time (CDT) Temp. Windchill Dew Point Humidity Pressure Visibility Wind Dir Wind Speed Gust Speed Precip Events Conditions
12:15 AM 46.4 °F 41.5 °F 29.3 °F 51% 30.14 in 10.0 mi SE 10.4 mph - N/A   Overcast
12:35 AM 46.4 °F 42.4 °F 29.7 °F 52% 30.13 in 10.0 mi SE 8.1 mph - N/A   Overcast
12:55 AM 46.4 °F 42.4 °F 29.7 °F 52% 30.13 in 10.0 mi SE 8.1 mph - N/A   Overcast
1:15 AM 46.4 °F 43.5 °F 29.8 °F 53% 30.13 in 10.0 mi SE 5.8 mph - N/A   Overcast
1:35 AM 46.4 °F 41.9 °F 29.8 °F 53% 30.13 in 10.0 mi SE 9.2 mph - N/A   Overcast
4:15 AM 46.4 °F 41.5 °F 31.6 °F 56% 30.10 in 10.0 mi SE 10.4 mph 16.1 mph N/A   Overcast
4:35 AM 46.4 °F 41.5 °F 31.8 °F 57% 30.10 in 10.0 mi SE 10.4 mph 16.1 mph N/A   Overcast
4:55 AM 46.4 °F 41.1 °F 32.0 °F 57% 30.10 in 10.0 mi SE 11.5 mph - N/A   Overcast
5:15 AM 46.2 °F 41.2 °F 32.0 °F 58% 30.10 in 10.0 mi SE 10.4 mph - N/A   Mostly Cloudy
5:35 AM 46.0 °F 41.0 °F 32.0 °F 58% 30.10 in 10.0 mi SE 10.4 mph - N/A   Overcast
5:55 AM 45.7 °F 41.0 °F 32.2 °F 59% 30.10 in 10.0 mi SE 9.2 mph - N/A   Overcast
6:15 AM 45.5 °F 41.3 °F 32.4 °F 60% 30.11 in 10.0 mi SE 8.1 mph - N/A   Overcast
6:35 AM 45.0 °F 40.6 °F 32.5 °F 62% 30.11 in 10.0 mi SE 8.1 mph - N/A   Overcast
6:55 AM 45.1 °F 41.4 °F 32.9 °F 62% 30.12 in 10.0 mi SE 6.9 mph - N/A   Mostly Cloudy
7:15 AM 45.5 °F 41.8 °F 33.3 °F 62% 30.12 in 10.0 mi SE 6.9 mph - N/A   Mostly Cloudy
7:35 AM 45.5 °F 40.3 °F 33.8 °F 64% 30.12 in 10.0 mi SE 10.4 mph - N/A   Mostly Cloudy
7:55 AM 46.4 °F 42.4 °F 34.2 °F 62% 30.12 in 10.0 mi SE 8.1 mph - N/A   Mostly Cloudy
8:15 AM 46.9 °F - 34.9 °F 63% 30.13 in 10.0 mi SE 10.4 mph - N/A   Mostly Cloudy
8:35 AM 48.2 °F - 35.8 °F 62% 30.13 in 10.0 mi SE 8.1 mph - N/A   Overcast
8:55 AM 48.7 °F - 36.5 °F 63% 30.13 in 10.0 mi SE 5.8 mph - N/A   Overcast
9:15 AM 49.8 °F - 37.2 °F 62% 30.12 in 10.0 mi SE 5.8 mph - N/A   Overcast
9:35 AM 51.8 °F - 38.1 °F 60% 30.12 in 10.0 mi SE 8.1 mph - N/A   Overcast
9:55 AM 53.2 °F - 38.7 °F 58% 30.11 in 10.0 mi SSE 9.2 mph - N/A   Mostly Cloudy
10:15 AM 54.3 °F - 38.5 °F 55% 30.11 in 10.0 mi South 11.5 mph 17.3 mph N/A   Overcast
10:35 AM 57.0 °F - 39.7 °F 52% 30.10 in 10.0 mi SSE 11.5 mph - N/A   Mostly Cloudy
10:55 AM 57.7 °F - 39.9 °F 51% 30.10 in 10.0 mi South 10.4 mph 19.6 mph N/A   Mostly Cloudy
11:15 AM 58.5 °F - 41.0 °F 52% 30.10 in 10.0 mi SSE 10.4 mph 18.4 mph N/A   Scattered Clouds
11:35 AM 62.6 °F - 41.4 °F 46% 30.09 in 10.0 mi South 16.1 mph 21.9 mph N/A   Mostly Cloudy
11:55 AM 65.7 °F - 37.6 °F 36% 30.08 in 10.0 mi SSW 20.7 mph 35.7 mph N/A   Mostly Cloudy
12:15 PM 66.2 °F - 37.2 °F 34% 30.07 in 10.0 mi SSW 15.0 mph 31.1 mph N/A   Mostly Cloudy
12:35 PM 67.1 °F - 36.9 °F 33% 30.06 in 10.0 mi SSW 10.4 mph 28.8 mph N/A   Mostly Cloudy
12:55 PM 67.3 °F - 37.6 °F 34% 30.06 in 10.0 mi SSW 15.0 mph 26.5 mph N/A   Scattered Clouds
1:15 PM 66.2 °F - 37.6 °F 35% 30.05 in 10.0 mi South 19.6 mph 29.9 mph N/A   Mostly Cloudy
1:35 PM 67.6 °F - 37.9 °F 34% 30.04 in 10.0 mi SSW 13.8 mph 31.1 mph N/A   Mostly Cloudy
1:55 PM 68.4 °F - 38.3 °F 33% 30.03 in 10.0 mi South 16.1 mph 33.4 mph N/A   Scattered Clouds
2:15 PM 67.3 °F - 39.0 °F 35% 30.03 in 10.0 mi South 17.3 mph 29.9 mph N/A   Mostly Cloudy
2:35 PM 67.1 °F - 39.2 °F 36% 30.03 in 10.0 mi South 17.3 mph 25.3 mph N/A   Mostly Cloudy
2:55 PM 66.6 °F - 39.7 °F 37% 30.02 in 10.0 mi South 15.0 mph 24.2 mph N/A   Mostly Cloudy
3:15 PM 67.1 °F - 40.5 °F 38% 30.01 in 10.0 mi SSW 12.7 mph 25.3 mph N/A   Mostly Cloudy
3:35 PM 66.7 °F - 40.1 °F 38% 30.01 in 10.0 mi SSW 12.7 mph 25.3 mph N/A   Overcast
3:55 PM 66.4 °F - 39.2 °F 37% 30.01 in 10.0 mi South 12.7 mph 18.4 mph N/A   Overcast
4:15 PM 66.6 °F - 39.4 °F 37% 30.01 in 10.0 mi South 11.5 mph 21.9 mph N/A   Light Drizzle
4:35 PM 67.8 °F - 39.2 °F 35% 30.00 in 10.0 mi South 11.5 mph 20.7 mph N/A   Overcast
4:55 PM 67.6 °F - 39.2 °F 35% 30.00 in 10.0 mi SSW 10.4 mph 19.6 mph N/A   Mostly Cloudy
5:15 PM 67.6 °F - 39.2 °F 35% 30.00 in 10.0 mi SSW 11.5 mph 19.6 mph N/A   Overcast
5:35 PM 67.5 °F - 39.4 °F 36% 30.00 in 10.0 mi SSW 10.4 mph - N/A   Overcast
5:55 PM 66.6 °F - 40.3 °F 38% 30.00 in 10.0 mi South 10.4 mph 17.3 mph N/A Rain Light Rain
6:15 PM 66.4 °F - 39.9 °F 38% 29.99 in 10.0 mi South 11.5 mph 17.3 mph N/A   Mostly Cloudy
6:35 PM 65.7 °F - 42.6 °F 43% 30.00 in 10.0 mi SSE 8.1 mph - N/A Rain Light Rain
6:55 PM 63.7 °F - 44.6 °F 50% 29.99 in 10.0 mi SE 5.8 mph - N/A Rain Light Rain
7:15 PM 63.9 °F - 45.0 °F 50% 30.00 in 10.0 mi West 8.1 mph - N/A Rain Light Rain
7:35 PM 59.5 °F - 48.9 °F 68% 30.00 in 10.0 mi Calm Calm - 0.02 in Rain Light Rain
7:55 PM 56.3 °F - 52.5 °F 87% 30.00 in 10.0 mi Calm Calm - 0.02 in   Overcast
8:15 PM 59.2 °F - 48.6 °F 68% 30.03 in 10.0 mi NNW 12.7 mph 26.5 mph N/A Rain Light Rain
8:35 PM 56.5 °F - 50.2 °F 79% 30.05 in 7.0 mi NNW 12.7 mph 23.0 mph 0.02 in Rain Rain
8:55 PM 54.7 °F - 52.0 °F 91% 30.07 in 4.0 mi NNW 9.2 mph - 0.18 in Rain Heavy Rain
9:15 PM 54.5 °F - 52.2 °F 92% 30.08 in 7.0 mi North 3.5 mph - 0.06 in Rain Light Rain
9:35 PM 53.8 °F - 52.2 °F 94% 30.08 in 7.0 mi SE 6.9 mph - 0.09 in Rain Rain
9:55 PM 53.4 °F - 52.3 °F 96% 30.09 in 5.0 mi SE 9.2 mph - 0.19 in Rain Heavy Rain
10:15 PM 53.4 °F - 52.2 °F 95% 30.09 in 10.0 mi SSE 4.6 mph - N/A Rain Light Rain
10:35 PM 53.6 °F - 51.8 °F 94% 30.10 in 10.0 mi SSE 4.6 mph - N/A   Overcast
10:55 PM 53.1 °F - 51.8 °F 95% 30.10 in 10.0 mi ESE 3.5 mph - N/A   Overcast
11:15 PM 52.7 °F - 51.4 °F 95% 30.11 in 10.0 mi ESE 4.6 mph - N/A   Overcast
11:35 PM 51.8 °F - 50.9 °F 97% 30.10 in 10.0 mi SE 4.6 mph - N/A   Scattered Clouds
11:55 PM 51.8 °F - 50.9 °F 97% 30.10 in 10.0 mi Calm Calm - N/A   Scattered Clouds